Regional Weather Roundup
Issued by NWS

Home | Current Version | Previous Version | Graphics & Text | Print | Product List | Glossary On
Versions: 1 2 3 4 5 6 7 8 9 10 11 12 13 14 15 16 17 18 19 20 21 22 23 24 25 26 27 28 29 30 31 32 33 34 35 36 37 38 39 40 41 42 43 44 45 46 47 48 49 50
000
ASUS43 KFSD 280302
RWRSD

WEATHER ROUNDUP FOR SOUTH DAKOTA
NATIONAL WEATHER SERVICE SIOUX FALLS SD
1000 PM CDT SUN JUL 27 2014

NOTE: "FAIR" INDICATES FEW OR NO CLOUDS BELOW 12,000 FEET WITH NO
SIGNIFICANT WEATHER AND/OR OBSTRUCTIONS TO VISIBILITY.


SDZ001>005-009-010-012>017-280400-
NORTHWEST AND NORTH CENTRAL SOUTH DAKOTA

CITY           SKY/WX    TMP DP  RH WIND       PRES   REMARKS
BUFFALO          N/A     62  54  74 E10       30.25R
FAITH            N/A     62  53  72 NE5       30.29R
MOBRIDGE       CLEAR     57  52  83 NE7       30.25R
$$

SDZ012>016-024>037-041>051-057-063-072>074-280400-
SOUTHWEST AND SOUTH CENTRAL SOUTH DAKOTA

CITY           SKY/WX    TMP DP  RH WIND       PRES   REMARKS
RAPID CTY ARPT CLEAR     63  52  67 NE8       30.30R
PIERRE         CLEAR     64  55  72 NE9       30.24R
CUSTER         CLEAR     62  44  51 E9        30.41R
ELLSWORTH AFB  CLEAR     70  52  52 E7        30.30R
PHILIP         CLEAR     67  52  58 NE8       30.27R
PINE RIDGE     CLEAR     62  54  74 E3        30.29R
WINNER         FAIR      65  52  62 NE6       30.26R
$$

SDZ004>011-016>023-039-040-280400-
NORTHEAST SOUTH DAKOTA

CITY           SKY/WX    TMP DP  RH WIND       PRES   REMARKS
ABERDEEN       CLEAR     58  54  86 N6        30.23R
WATERTOWN      CLOUDY    62  55  77 N9        30.21R
SISSETON         N/A     60  56  86 N7        30.19R
$$

SDZ017-020-022-023-036>040-048>070-280400-
SOUTHEAST SOUTH DAKOTA

CITY           SKY/WX    TMP DP  RH WIND       PRES   REMARKS
SIOUX FALLS    PTCLDY    64  57  78 N12       30.19R
HURON          PTCLDY    60  54  80 N5        30.23R
CHAMBERLAIN    CLEAR     64  55  73 NE7       30.26R
MITCHELL       CLEAR     62  55  77 N7        30.23R
YANKTON        CLEAR     63  54  72 N7        30.21R
$$

ABBREVIATIONS USED IN REMARKS
   TC - TEMPERATURE IN CELSIUS
  WCI - WIND CHILL INDEX
   HX - HEAT INDEX
  VSB - VISIBILITY




USA.gov is the U.S. government's official web portal to all federal, state and local government web resources and services.